Location: *
(58.7167°N, 26.1833°E)
Time: 11:50:57
(UTC+00:00)

SL-16 R/B - Pass Details

Date: 25 August 2019
Orbit: 842 x 846 km, 71.0° (Epoch: 23 September)

Event Time Altitude Azimuth Distance (km) Brightness Sun altitude
Rises 19:36:53 0° 321° (NW) 3,419 7.4 -13.4°
Reaches altitude 10° 19:39:20 10° 321° (NW) 2,481 6.1 -13.6°
Maximum altitude 19:45:03 86° 235° (SW) 857 2.2 -14.1°
Enters shadow 19:48:56 21° 147° (SSE) 1,801 3.3 -14.4°
